EW1268 Weather Reports


Display with metric or nautical units.
time (UTC)temp
F
wind
direction
speed
MPH
gust
MPH
rain 1hr
in
rain 24hr
in
rain mn
in
humidity
%
barometer
mb
20260502163024 69 9 4.0 13.0 0.00 2.38 0.00 73 1020.8
20260502162510 69 116 4.0 13.0 0.00 2.38 0.00 72 1020.9
20260502162011 69 32 4.0 10.0 0.00 2.93 0.00 77 1020.8
20260502161525 68 309 4.0 11.0 0.00 3.04 0.00 74 1020.9
20260502161011 68 337 3.0 13.0 0.00 3.04 0.00 74 1020.8
20260502160504 68 298 4.0 14.0 0.00 3.04 0.00 73 1020.8
20260502152010 65 90 3.0 9.0 0.00 3.05 0.00 81 1020.6
20260502151537 64 332 2.0 9.0 0.00 3.06 0.00 83 1020.6
20260502151006 64 153 3.0 17.0 0.00 3.06 0.00 82 1020.7
20260502150514 63 9 4.0 17.0 0.00 3.06 0.00 82 1020.8
20260502130509 54 301 2.0 9.0 0.00 3.09 0.00 93 1019.6
20260502123509 53 46 2.0 5.0 0.00 3.10 0.00 93 1019.1
20260502123027 53 34 1.0 5.0 0.00 3.10 0.00 93 1018.9
20260502122510 53 291 2.0 5.0 0.00 3.10 0.00 93 1018.9
20260502122010 53 338 1.0 8.0 0.00 3.11 0.00 93 1018.9
20260502121526 52 44 2.0 8.0 0.00 3.11 0.00 93 1018.8
20260502121011 52 328 2.0 6.0 0.00 3.11 0.00 93 1018.8
20260502120507 52 329 1.0 6.0 0.00 3.11 0.00 93 1018.8
20260502115507 52 34 2.0 8.0 0.00 3.11 0.00 93 1018.7
20260502115007 52 286 1.0 6.0 0.00 3.12 0.00 93 1018.5
20260502114523 52 32 1.0 4.0 0.00 3.12 0.00 92 1018.4
20260502114007 52 344 1.0 3.0 0.00 3.12 0.00 92 1018.4
20260502113507 52 247 1.0 3.0 0.00 3.12 0.00 92 1018.6
20260502113033 52 26 0.0 4.0 0.00 3.12 0.00 92 1018.5
20260502112507 53 265 1.0 4.0 0.00 3.12 0.00 92 1018.6
20260502112006 53 13 1.0 8.0 0.00 3.13 0.00 92 1018.5
20260502111524 53 15 2.0 8.0 0.00 3.13 0.00 92 1018.4
20260502111010 53 16 1.0 4.0 0.00 3.13 0.00 92 1018.2
20260502110507 53 61 1.0 6.0 0.00 3.13 0.00 92 1018.2
20260502110029 53 93 1.0 6.0 0.00 3.13 0.00 92 1018.1
20260502105508 53 9 2.0 6.0 0.00 3.14 0.00 92 1018.0
20260502105014 53 65 1.0 5.0 0.00 3.14 0.00 92 1018.0
20260502104529 53 40 2.0 5.0 0.00 3.14 0.00 92 1018.0
20260502104008 53 319 1.0 5.0 0.00 3.14 0.00 91 1017.9
20260502103508 53 67 2.0 5.0 0.00 3.14 0.00 92 1018.0
20260502103026 53 41 1.0 5.0 0.00 3.15 0.00 91 1017.8
20260502102507 53 330 1.0 5.0 0.00 3.15 0.00 91 1017.9
20260502102009 53 93 1.0 5.0 0.00 3.15 0.00 91 1017.7
20260502101530 53 316 2.0 5.0 0.00 3.15 0.00 91 1017.6
20260502101012 53 34 0.0 4.0 0.00 3.16 0.00 91 1017.5
20260502100511 53 332 1.0 4.0 0.00 3.16 0.00 91 1017.5
20260502091522 55 38 1.0 6.0 0.00 3.18 0.00 91 1016.4
20260502091015 55 221 1.0 6.0 0.00 3.18 0.00 91 1016.4
20260502090507 55 86 2.0 9.0 0.00 3.19 0.00 91 1016.3
20260502071522 55 109 2.0 9.0 0.00 3.24 0.00 92 1016.1
20260502071007 55 93 2.0 9.0 0.00 3.24 0.00 92 1016.1
20260502070507 55 312 2.0 5.0 0.00 3.25 0.00 92 1016.1
20260502070026 55 115 2.0 5.0 0.00 3.25 0.00 92 1016.2
20260502065510 55 93 1.0 9.0 0.00 3.25 0.00 92 1016.3
20260502065011 55 93 2.0 9.0 0.00 3.26 0.00 92 1016.3
20260502064531 55 316 2.0 8.0 0.00 3.26 0.00 92 1016.2
20260502064016 56 69 2.0 7.0 0.00 3.26 0.00 93 1016.2
20260502063509 56 287 2.0 7.0 0.00 3.27 0.00 93 1016.4
20260502063024 56 65 2.0 6.0 0.00 3.27 0.00 93 1016.3
20260502062514 56 55 2.0 12.0 0.00 3.27 0.00 93 1016.2
20260502062011 56 9 3.0 12.0 0.00 3.28 0.00 93 1016.1
20260502061525 56 21 2.0 9.0 0.00 3.28 0.00 93 1016.1
20260502061011 56 32 2.0 9.0 0.00 3.28 0.00 93 1016.0
20260502060510 56 16 2.0 9.0 0.00 3.29 0.00 93 1016.0
20260502060028 56 80 1.0 9.0 0.00 3.29 0.00 93 1016.0
20260502055506 56 48 3.0 10.0 0.00 3.29 0.00 93 1016.0
20260502055010 56 65 3.0 12.0 0.00 3.30 0.00 93 1016.0
20260502054526 56 84 3.0 12.0 0.00 3.30 0.00 93 1016.0
20260502054007 56 80 3.0 10.0 0.00 3.31 0.00 94 1016.0
20260502053508 56 71 2.0 9.0 0.00 3.32 0.00 94 1016.0
20260502053027 56 238 2.0 9.0 0.00 3.33 0.00 94 1016.0
20260502052512 56 16 2.0 9.0 0.00 3.34 0.00 94 1016.0
20260502052008 56 92 3.0 9.0 0.00 3.35 0.00 94 1015.9
20260502051522 56 79 3.0 8.0 0.00 3.35 0.00 94 1015.7
20260502051010 56 38 3.0 8.0 0.00 3.36 0.00 94 1015.8
20260502050509 56 83 2.0 9.0 0.00 3.37 0.00 94 1015.9
20260502050027 56 141 1.0 9.0 0.00 3.39 0.00 94 1015.6
20260502045510 56 117 4.0 9.0 0.00 3.41 3.39 94 1015.6
20260502045015 56 63 2.0 10.0 0.00 3.44 3.39 94 1015.4
20260502044528 56 295 2.0 10.0 0.00 3.48 3.39 94 1015.3
20260502044011 56 61 2.0 10.0 0.00 3.58 3.39 94 1015.3
20260502043514 56 330 3.0 8.0 0.00 3.60 3.39 94 1015.4
20260502043023 56 117 3.0 7.0 0.00 3.60 3.39 94 1015.3
20260502042512 56 67 3.0 8.0 0.00 3.60 3.39 94 1015.6
20260502042012 56 137 1.0 8.0 0.00 3.60 3.39 94 1015.8
20260502041529 56 57 3.0 11.0 0.00 3.60 3.39 94 1015.9
20260502041013 56 332 3.0 11.0 0.00 3.60 3.39 94 1015.8
20260502040510 56 221 3.0 11.0 0.00 3.60 3.39 94 1015.5
20260502040026 56 72 2.0 9.0 0.00 3.60 3.39 94 1015.4
20260502035507 56 265 1.0 9.0 0.00 3.60 3.39 95 1015.3
20260502035010 56 99 2.0 9.0 0.00 3.60 3.39 94 1015.3
20260502034526 56 74 2.0 10.0 0.00 3.60 3.39 95 1015.4
20260502034010 56 131 1.0 11.0 0.00 3.60 3.39 94 1015.5
20260502033509 56 80 2.0 11.0 0.01 3.60 3.39 94 1015.5
20260502033025 56 51 1.0 11.0 0.01 3.60 3.39 94 1015.4
20260502032514 56 123 2.0 11.0 0.01 3.60 3.39 94 1015.3
20260502032008 56 93 3.0 12.0 0.01 3.60 3.39 94 1015.0
20260502031522 56 236 2.0 12.0 0.01 3.60 3.39 95 1015.0
20260502031009 56 51 4.0 13.0 0.01 3.60 3.39 95 1015.0
20260502030510 56 43 3.0 14.0 0.01 3.60 3.39 95 1015.0
20260502030026 56 11 4.0 14.0 0.01 3.60 3.39 95 1014.7
20260502025508 56 9 2.0 12.0 0.01 3.60 3.39 95 1014.7
20260502025011 56 108 4.0 12.0 0.02 3.60 3.39 95 1014.6
20260502024528 56 342 3.0 11.0 0.02 3.60 3.39 95 1014.4
20260502024009 57 116 3.0 13.0 0.03 3.60 3.39 95 1013.9
20260502023508 57 90 4.0 13.0 0.02 3.59 3.38 95 1013.9
20260502023030 57 93 3.0 11.0 0.03 3.59 3.38 95 1013.9
20260502022509 57 51 3.0 10.0 0.04 3.59 3.38 95 1013.8
20260502022015 57 49 3.0 10.0 0.04 3.59 3.38 95 1013.7
20260502021530 57 49 3.0 10.0 0.04 3.59 3.38 95 1013.9
20260502021007 57 330 2.0 10.0 0.05 3.59 3.38 95 1013.7
20260502020511 57 9 4.0 10.0 0.06 3.59 3.38 95 1013.3
20260502020033 58 105 4.0 10.0 0.30 3.59 3.38 95 1013.5
20260502015509 58 88 3.0 10.0 0.64 3.59 3.38 95 1013.5
20260502015011 58 141 3.0 10.0 0.66 3.58 3.37 95 1013.4
20260502014526 58 321 3.0 10.0 0.67 3.58 3.37 95 1013.4
20260502014008 58 214 3.0 11.0 0.66 3.57 3.36 95 1013.1
20260502013509 59 93 2.0 11.0 0.66 3.57 3.36 95 1013.4
20260502013028 59 15 4.0 11.0 0.66 3.56 3.35 95 1013.3
20260502012507 59 298 3.0 9.0 0.65 3.55 3.34 95 1013.1
20260502012010 59 41 2.0 8.0 0.66 3.55 3.34 95 1013.1
20260502011530 59 22 2.0 10.0 0.67 3.55 3.34 95 1013.1
20260502011011 59 29 3.0 10.0 0.67 3.54 3.33 95 1013.0
20260502010516 59 13 2.0 9.0 0.68 3.53 3.32 95 1012.8
20260502010025 59 63 3.0 12.0 0.45 3.29 3.08 95 1012.6
20260502005510 59 338 3.0 14.0 0.12 2.95 2.74 95 1012.6
20260502005012 59 21 4.0 14.0 0.11 2.92 2.71 95 1012.8
20260502004528 59 41 3.0 10.0 0.12 2.91 2.70 95 1013.0
20260502004008 59 319 3.0 8.0 0.14 2.91 2.70 95 1013.5
20260502003509 59 298 2.0 6.0 0.16 2.91 2.70 95 1013.1
20260502003024 59 88 1.0 9.0 0.16 2.90 2.69 95 1012.4
20260502002514 59 265 2.0 9.0 0.16 2.90 2.69 95 1012.1
20260502002014 59 101 3.0 9.0 0.15 2.89 2.68 95 1011.7
20260502001528 59 75 3.0 9.0 0.15 2.88 2.67 95 1011.9
20260502001009 59 319 3.0 9.0 0.14 2.87 2.66 95 1012.0
20260502000510 59 67 2.0 6.0 0.13 2.85 2.64 95 1012.2
20260502000030 59 116 2.0 10.0 0.13 2.84 2.63 95 1011.9
20260501235508 59 84 3.0 10.0 0.16 2.83 2.62 95 1012.0
20260501235003 59 58 2.0 9.0 0.19 2.81 2.60 95 1012.1
20260501234509 60 41 3.0 8.0 0.18 2.79 2.58 95 1012.1
20260501234005 60 67 2.0 8.0 0.16 2.77 2.56 95 1012.8
20260501233506 60 9 2.0 9.0 0.14 2.75 2.54 95 1012.5
20260501233011 60 26 2.0 9.0 0.13 2.74 2.53 95 1012.1
20260501232504 60 55 4.0 9.0 0.13 2.74 2.53 95 1011.5
20260501232007 60 298 2.0 13.0 0.13 2.74 2.53 95 1010.5
20260501231509 60 92 2.0 13.0 0.12 2.73 2.52 95 1010.2
20260501231005 60 112 4.0 13.0 0.12 2.73 2.52 95 1009.8
20260501230506 60 53 5.0 9.0 0.11 2.72 2.51 95 1010.0
20260501230010 61 93 3.0 9.0 0.10 2.71 2.50 95 1011.0
20260501225506 61 238 1.0 9.0 0.06 2.67 2.46 95 1010.9
20260501225010 61 85 3.0 15.0 0.01 2.62 2.41 95 1011.1
20260501224509 61 23 2.0 15.0 0.00 2.61 2.40 95 1011.5
20260501224003 61 9 3.0 10.0 0.00 2.61 2.40 95 1010.7
20260501223503 61 126 3.0 10.0 0.00 2.61 2.40 95 1010.1
20260501223011 61 55 3.0 10.0 0.01 2.61 2.40 95 1010.0
20260501222504 61 131 4.0 10.0 0.01 2.61 2.40 95 1009.9
20260501222008 61 88 4.0 9.0 0.01 2.61 2.40 96 1010.2
20260501221516 61 21 1.0 10.0 0.02 2.61 2.40 96 1009.9
20260501221010 62 101 3.0 11.0 0.04 2.61 2.40 96 1009.8
20260501220506 62 110 4.0 11.0 0.05 2.61 2.40 96 1009.9
20260501220011 62 133 3.0 9.0 0.06 2.61 2.40 96 1010.1
20260501215506 62 123 2.0 11.0 0.07 2.61 2.40 96 1010.2
20260501215005 62 135 3.0 11.0 0.07 2.61 2.40 95 1010.3
20260501214510 62 42 3.0 8.0 0.07 2.61 2.40 96 1010.6
20260501214006 62 61 2.0 9.0 0.07 2.61 2.40 96 1010.6
20260501213507 62 83 2.0 9.0 0.08 2.61 2.40 96 1010.7
20260501213014 62 74 2.0 11.0 0.08 2.60 2.39 96 1010.4
20260501212503 62 44 3.0 11.0 0.09 2.60 2.39 96 1010.9
20260501212007 62 85 3.0 8.0 0.10 2.60 2.39 96 1010.9
20260501211513 62 17 2.0 8.0 0.14 2.59 2.38 96 1010.9
20260501211006 62 38 2.0 8.0 0.15 2.57 2.35 96 1010.8
20260501210505 62 67 2.0 11.0 0.14 2.56 2.34 96 1010.8
20260501210010 62 272 3.0 11.0 0.14 2.55 2.33 96 1010.6
20260501205508 62 291 3.0 9.0 0.14 2.54 2.33 96 1010.0
20260501205006 62 329 3.0 9.0 0.16 2.54 2.33 96 1009.6
20260501204505 62 131 2.0 7.0 0.16 2.54 2.33 96 1009.6
20260501204003 62 123 2.0 7.0 0.16 2.54 2.33 96 1009.8
20260501203503 62 265 1.0 8.0 0.16 2.53 2.32 96 1009.7
20260501203006 62 58 3.0 8.0 0.15 2.52 2.31 96 1009.4
20260501202504 63 76 2.0 5.0 0.15 2.51 2.30 96 1009.8
20260501202004 62 83 2.0 6.0 0.16 2.50 2.29 96 1009.6
20260501201505 62 291 1.0 6.0 0.14 2.45 2.24 96 1009.5
20260501201006 62 109 1.0 5.0 0.11 2.42 2.21 96 1009.9
20260501200508 62 79 2.0 8.0 0.12 2.42 2.21 96 1009.3
20260501200012 62 85 3.0 8.0 0.11 2.41 2.20 96 1009.4
20260501195504 63 25 2.0 8.0 0.14 2.40 2.19 96 1009.3
20260501195004 63 26 2.0 6.0 0.18 2.38 2.17 96 1009.3
20260501194504 63 76 2.0 7.0 0.20 2.38 2.17 96 1009.2
20260501194005 63 18 2.0 7.0 0.20 2.38 2.17 96 1009.1
20260501193504 63 82 2.0 7.0 0.19 2.36 2.16 96 1009.4
20260501193013 63 331 1.0 6.0 0.19 2.36 2.16 96 1009.2
20260501192504 63 153 2.0 6.0 0.19 2.35 2.15 96 1009.1
20260501192004 63 60 2.0 6.0 0.18 2.33 2.13 96 1009.2
20260501191506 63 113 2.0 6.0 0.18 2.31 2.09 96 1009.3
20260501191004 63 63 1.0 6.0 0.41 2.31 2.09 96 1009.6
20260501190506 63 93 1.0 6.0 0.45 2.30 2.08 95 1009.5
20260501190005 63 284 2.0 6.0 0.45 2.30 2.08 95 1009.6
20260501185504 63 78 2.0 9.0 0.42 2.26 2.05 96 1009.4
20260501185002 63 30 3.0 9.0 0.37 2.20 1.99 96 1010.1
20260501184507 63 78 1.0 8.0 0.40 2.18 1.97 96 1009.5
20260501184005 63 75 2.0 7.0 0.52 2.18 1.97 96 1009.2
20260501183503 63 84 2.0 10.0 0.63 2.18 1.97 96 1009.9
20260501183005 63 74 3.0 10.0 0.71 2.18 1.97 96 1009.2
20260501182503 63 46 2.0 8.0 0.72 2.17 1.96 96 1008.5
20260501182007 63 140 3.0 9.0 0.76 2.16 1.95 95 1008.2
20260501181507 63 105 4.0 9.0 0.75 2.13 1.92 95 1008.7
20260501181004 63 86 4.0 7.0 0.52 1.90 1.69 95 1009.4
20260501180504 63 298 2.0 6.0 0.47 1.85 1.64 95 1010.0
20260501180009 63 284 2.0 8.0 0.47 1.85 1.64 95 1008.5
20260501175505 63 34 3.0 9.0 0.46 1.84 1.63 95 1008.8
20260501175005 63 108 3.0 9.0 0.45 1.83 1.62 95 1009.0
20260501174508 63 111 4.0 8.0 0.50 1.78 1.57 95 1009.1
20260501174004 63 82 3.0 8.0 0.38 1.66 1.45 95 1009.5
20260501173505 63 88 3.0 9.0 0.27 1.55 1.34 95 1010.2
20260501173010 63 39 2.0 10.0 0.25 1.47 1.26 95 1010.6
20260501172506 63 119 3.0 10.0 0.23 1.45 1.24 95 1010.3
20260501172010 63 105 2.0 8.0 0.73 1.40 1.19 95 1010.4
20260501171509 63 119 3.0 9.0 0.82 1.38 1.16 95 1010.3
20260501171002 63 74 2.0 9.0 0.82 1.38 1.16 95 1010.8
20260501170504 63 321 3.0 12.0 0.82 1.38 1.16 95 1010.3
20260501170014 63 114 3.0 12.0 0.82 1.38 1.16 95 1010.3
20260501165504 63 332 3.0 10.0 0.82 1.38 1.16 95 1010.6
20260501165006 63 121 4.0 10.0 0.83 1.38 1.16 95 1010.7
20260501164511 63 93 3.0 10.0 0.73 1.28 1.07 95 1010.7
20260501164006 63 324 3.0 10.0 0.73 1.28 1.07 95 1011.1
20260501163506 63 88 3.0 9.0 0.73 1.28 1.07 95 1011.2